sat.trackr.live / text

‹ back to catalog

ATHENA EPIC

NORAD 64871 · 2025-154C

PAYLOAD ACTIVE UNKNOWN

§ Identity

Operator
Country
US
Launch date
2025-07-23
Launch site
AFWTR
Launch vehicle
Mass (kg)
RCS (m²)

External: N2YO · Heavens-Above · Gunter

§ Orbital elements

Epoch: 2026-05-25T03:55:59.536992Z

Period
96.38 min
Inclination
97.6683°
Eccentricity
0.0005803
Mean motion
14.94019354 rev/d
Perigee alt
581.4 km
Apogee alt
589.5 km
Semi-major
6,963.6 km
B*
1.1511e-4
RAAN
209.5115°
Arg perigee
334.1557°
Mean anomaly
25.9373°
Rev number
4,557

§ Raw data

ATHENA EPIC1 64871U 25154C   26145.16388353  .00001172  00000+0  11511-3 0  99902 64871  97.6683 209.5115 0005803 334.1557  25.9373 14.94019354 45574

JSON: /api/v1/satellites/64871 · /tle

For live sub-satellite position, see the globe view (requires WebGL).

§ Visibility from observer

Set your observer location to see the next 7 days of passes ≥ 10°. The values pass through the URL so the page stays shareable.

No JS? Fill the form by hand. The geolocation button needs JavaScript.